Presure
118 121 109 115 113 109 113 116 114 122 122 106 130 114 127 138 139 147 158 170 159 150 166 167 170 186 170 182 189 188 219 215 197 194 193 191 173 172 168 173 174 171 171 170 166 168 178 249 214
123 118 122 115 113 116 117 98 123 123 107 115 110 118 128 146 140 158 166 160 157 155 156 177 168 186 168 131 187 178 212 203 203 203 208 208 191 175 175 172 171 174 172 172 176 169 164 164 175
121 124 122 115 116 117 115 122 123 128 107 111 129 128 143 143 148 144 168 160 160 158 165 180 155 154 135 183 189 178 207 193 199 216 218 207 201 191 184 170 177 171 173 178 172 173 174 165 170
125 126 124 120 116 119 111 124 109 117 116 122 117 123 154 136 142 142 162 151 152 169 153 181 168 182 172 190 155 210 217 184 191 193 210 214 208 191 196 185 175 176 173 173 169 177 175 173 169
118 126 113 128 122 123 128 131 132 125 108 132 122 130 143 134 144 149 153 151 161 182 161 182 173 152 171 148 188 163 210 193 181 190 204 202 203 216 215 201 186 181 177 174 182 174 180 183 176
137 124 122 121 115 124 130 124 117 123 112 125 135 151 143 141 117 151 165 161 158 182 169 180 169 169 144 191 204 179 221 210 168 167 182 200 205 237 206 204 201 186 183 181 181 183 180 184 181
128 136 116 118 126 114 122 116 122 109 122 121 123 149 133 156 166 159 167 156 157 174 168 181 167 174 184 200 209 203 174 148 164 176 188 183 198 196 211 207 204 203 190 188 187 186 184 184 184
108 125 134 122 141 126 102 118 104 111 151 125 130 140 137 158 150 146 154 157 168 171 142 187 135 138 186 206 200 135 136 134 140 169 170 185 191 194 194 193 217 211 202 198 191 189 191 192 192
137 115 125 121 123 124 137 123 106 132 158 120 114 147 163 157 137 154 160 154 179 182 121 186 153 155 131 176 139 123 202 217 151 155 148 148 159 154 203 200 185 214 216 219 213 220 219 208 203
126 158 127 129 117 122 128 123 154 161 117 128 158 159 154 157 150 164 174 169 128 152 118 152 169 174 158 124 135 183 166 183 144 155 149 148 197 223 162 185 195 193 200 212 199 196 194 200 198
163 119 112 107 132 98 115 153 125 119 127 147 133 141 150 149 164 167 152 163 174 164 125 182 185 182 190 111 125 178 230 117 211 159 203 153 164 208 193 144 171 189 196 195 213 195 200 200 198
110 159 157 154 107 150 176 140 140 159 133 139 160 161 165 160 174 171 163 180 167 130 180 118 185 185 200 205 214 178 238 189 135 137 122 216 207 141 172 191 195 182 195 196 188 192 201 200 193
160 152 147 150 112 163 139 157 148 146 154 155 168 150 161 171 170 154 160 187 169 195 161 185 175 145 207 183 139 257 214 109 198 205 119 192 209 153 225 177 199 214 187 164 201 188 195 192 204
164 170 147 150 162 154 161 143 136 149 135 138 147 157 175 164 174 173 178 156 196 175 187 163 181 111 226 227 218 215 124 121 171 169 196 197 206 204 194 197 210 212 162 170 183 228 192 193 185
155 159 159 150 152 148 143 168 165 147 155 154 153 161 181 151 165 188 168 161 186 187 178 179 185 210 187 214 230 250 210 121 121 203 196 210 115 216 226 224 213 187 214 209 174 218 215 200 192
159 155 157 159 159 153 151 166 170 162 162 156 173 150 158 162 177 172 169 172 197 180 135 164 193 175 221 213 220 171 158 120 122 203 226 199 174 206 211 207 221 234 186 199 182 220 223 206 197
154 157 153 146 147 165 161 169 167 167 170 150 176 174 166 173 176 183 173 170 194 177 182 200 190 210 218 203 100 137 169 231 223 220 116 173 212 200 193 214 225 235 231 230 225 216 224 213 202
166 167 165 164 167 171 160 160 164 174 136 165 160 158 171 162 185 171 169 185 192 181 198 184 189 147 219 139 219 210 236 235 102 244 230 235 227 223 223 206 202 224 233 214 215 211 221 221 208
168 163 165 163 151 162 170 163 156 165 170 158 175 183 171 156 182 170 183 178 193 184 185 192 186 216 217 212 203 209 224 213 225 216 216 218 225 223 216 209 219 205 228 236 221 215 207 209 206
167 170 126 161 172 169 179 153 177 148 173 160 179 165 181 171 177 173 179 180 192 185 168 160 189 209 209 206 207 196 210 120 115 137 140 227 210 232 226 212 208 211 205 230 227 218 212 209 205
183 178 170 171 137 149 179 149 176 175 141 141 148 177 174 179 170 170 177 177 191 177 180 187 186 201 200 200 201 200 194 204 103 161 195 246 237 232 232 218 214 200 199 229 223 220 216 211 205
166 167 181 167 165 178 170 175 167 165 170 173 164 185 177 181 174 171 174 177 189 175 177 173 201 197 195 199 196 193 192 195 109 204 215 250 216 229 232 220 223 227 221 202 225 220 213 206 203
176 176 176 166 165 178 177 180 175 165 168 177 176 172 180 177 173 172 175 194 182 177 178 175 195 199 193 194 192 194 187 195 197 196 201 207 223 245 245 243 234 237 219 223 225 213 215 209 204
179 177 180 179 175 156 172 172 176 169 177 172 168 174 174 174 173 176 185 191 179 177 170 173 192 198 193 192 192 194 190 197 191 192 197 202 190 194 212 210 216 228 230 231 229 214 210 210 213
177 170 183 182 187 182 175 185 175 165 164 183 184 177 178 174 176 175 190 181 179 176 170 187 190 194 190 192 193 192 188 183 189 191 189 171 179 189 178 215 218 214 214 214 229 230 242 225 206
183 180 178 188 184 185 182 178 175 180 179 177 178 178 177 175 170 181 198 179 177 169 173 185 191 192 192 192 191 190 184 186 186 191 184 199 187 198 171 209 203 176 211 213 216 235 230 234 231
187 190 186 184 190 182 175 173 169 175 170 178 178 174 174 173 177 195 182 172 177 170 172 191 195 190 189 191 189 190 185 189 187 191 188 183 184 173 188 197 206 181 213 213 211 218 236 244 236
195 185 190 188 183 182 179 178 175 178 180 181 175 175 178 179 197 173 174 174 173 174 185 182 195 193 190 189 185 187 185 186 186 184 185 183 185 167 187 199 203 182 190 214 218 214 219 241 249
176 177 179 186 178 179 172 177 185 186 191 185 185 190 175 191 174 172 173 178 175 191 193 181 197 196 192 194 188 185 186 186 183 183 184 182 181 164 191 173 205 207 197 201 207 222 215 235 258
186 189 183 184 175 171 171 176 169 172 178 186 189 191 187 172 170 176 177 174 213 192 181 190 196 186 187 175 185 190 184 184 183 188 183 182 175 181 188 197 197 196 204 211 205 214 216 237 235
Wind_Speed
30 32 21 27 26 24 28 30 30 37 36 26 43 35 45 46 44 45 45 42 45 47 45 44 42 36 39 38 40 38 33 23 21 24 19 21 22 23 22 23 25 26 27 27 28 27 25 29 34
35 32 34 26 25 30 32 17 37 37 24 33 32 39 44 44 44 43 42 44 47 46 46 44 42 37 40 26 40 40 29 25 22 24 24 20 25 25 26 25 25 26 28 29 29 29 29 28 28
34 36 34 26 29 32 31 36 37 37 25 29 37 40 43 44 44 45 41 44 45 46 47 45 40 34 27 38 40 40 29 26 22 22 18 18 22 28 31 26 30 27 28 31 31 31 32 31 32
39 37 36 31 29 35 24 37 26 33 32 36 35 38 41 45 45 46 43 45 47 47 45 45 42 41 40 43 35 37 20 22 22 25 18 15 19 24 28 32 30 31 30 31 31 33 36 36 35
33 40 24 38 34 37 41 41 41 39 29 42 40 45 45 45 47 47 45 45 46 46 46 46 45 35 41 36 44 37 28 19 21 21 21 17 18 18 21 28 33 33 33 30 33 33 35 36 39
45 39 37 36 27 36 40 39 33 38 33 40 46 42 44 48 29 46 45 46 47 45 48 46 40 40 35 45 47 36 26 22 24 25 24 22 18 16 19 24 31 35 35 36 36 38 36 38 40
45 42 30 33 40 30 38 33 39 31 37 40 42 43 48 44 45 48 47 47 48 48 48 46 43 42 44 47 43 34 30 26 27 25 24 27 21 20 16 23 28 32 37 39 39 40 40 39 40
25 41 44 35 44 41 26 35 28 33 42 41 45 47 46 46 46 47 48 48 50 48 31 44 25 31 45 49 38 22 26 24 26 27 30 29 28 24 26 24 23 29 34 39 38 39 40 40 41
51 32 43 35 36 39 46 40 29 44 43 38 36 46 45 46 42 48 50 48 49 47 26 44 39 38 27 41 27 25 32 28 38 35 25 27 31 27 26 25 29 22 25 25 30 32 37 41 41
43 53 44 44 28 36 45 41 46 43 35 46 45 44 45 47 46 49 51 51 30 44 26 31 46 43 37 26 29 34 36 27 27 41 29 29 25 26 32 32 27 27 26 26 30 31 32 35 33
55 36 29 29 47 27 34 48 37 37 42 48 46 49 48 48 51 49 48 50 50 48 34 48 47 46 47 33 32 36 24 28 26 41 24 35 25 18 22 27 28 30 28 28 27 32 33 34 33
32 57 57 55 31 54 46 50 51 50 46 49 49 49 50 50 49 51 51 49 49 28 49 30 44 45 55 38 37 29 22 29 26 27 29 30 24 28 42 33 31 36 29 30 32 34 33 33 33
62 60 54 54 37 54 51 52 53 50 45 50 48 50 51 51 49 50 51 49 52 43 34 44 44 36 53 39 27 22 24 27 27 29 29 26 31 32 31 33 29 25 34 34 31 35 36 36 33
64 58 60 60 55 57 57 52 51 53 48 47 53 52 50 52 49 52 50 51 43 51 45 38 49 33 42 37 34 30 31 39 29 28 28 24 30 34 35 35 31 25 40 38 36 24 38 37 38
69 67 64 62 58 58 60 57 58 54 54 54 55 54 47 55 54 46 55 56 49 47 50 50 52 50 40 33 33 25 28 39 33 27 26 30 26 30 31 26 26 42 29 33 43 27 30 38 38
70 71 66 62 60 59 60 58 56 56 56 56 50 52 54 55 50 52 56 55 45 45 36 45 54 37 37 34 29 23 37 36 44 27 31 27 29 26 26 26 26 30 47 41 45 28 28 35 40
73 73 66 59 58 58 60 59 59 57 56 60 51 51 51 51 52 48 53 57 45 52 50 51 50 48 36 35 15 40 36 26 28 26 20 25 27 28 29 24 28 29 25 24 23 24 26 32 37
74 70 66 68 62 60 62 61 58 56 43 56 60 57 50 55 49 53 55 52 50 51 51 51 50 28 38 40 30 31 30 28 23 29 26 30 27 25 25 24 25 28 26 27 24 25 25 30 34
71 71 69 69 63 65 61 63 63 61 58 60 58 49 52 58 50 54 51 53 54 53 53 56 50 51 46 41 37 38 31 33 27 25 25 25 26 24 24 24 27 26 25 26 27 25 28 29 33
71 69 58 70 65 64 60 58 59 58 61 60 54 58 51 53 51 55 52 55 55 53 54 54 57 55 49 48 45 37 42 42 20 28 24 28 28 27 25 24 24 25 26 24 25 26 27 30 34
74 69 71 70 58 59 59 55 60 60 53 49 47 55 54 52 54 56 55 55 55 54 56 58 57 53 51 48 46 44 39 41 30 25 34 25 26 26 24 25 24 25 27 23 23 23 25 28 32
74 74 71 69 63 63 61 64 63 61 60 59 58 54 53 53 55 55 55 55 52 55 56 58 54 53 51 47 46 45 44 45 28 39 32 23 25 26 25 26 26 26 26 27 23 21 25 28 32
81 74 69 66 65 63 60 65 64 61 62 59 59 56 52 53 54 54 56 54 53 54 56 58 55 48 50 47 49 45 43 45 47 49 44 38 29 25 26 26 28 27 30 31 27 27 25 29 32
86 79 77 73 68 63 71 58 62 60 60 61 60 56 53 52 57 58 62 50 52 53 56 58 54 47 48 48 49 47 48 45 46 47 47 44 41 35 36 34 34 29 30 31 31 31 29 30 31
85 81 82 76 71 70 68 59 64 63 61 59 56 56 54 54 57 58 61 52 50 52 56 57 53 49 50 47 47 47 49 50 49 50 50 37 34 43 32 40 38 38 38 38 35 35 35 34 33
93 89 79 73 70 70 63 60 65 62 59 60 59 58 55 55 55 64 49 51 50 53 55 56 52 50 49 46 47 47 49 47 46 46 50 45 50 49 31 44 43 30 43 42 41 39 39 38 36
89 82 85 76 68 66 64 67 67 66 60 61 60 58 58 58 58 56 50 53 51 53 56 52 48 50 50 48 49 48 49 47 45 44 47 50 51 45 52 50 45 40 42 45 45 43 39 41 40
83 83 78 72 66 68 69 70 70 69 64 63 60 62 62 62 57 54 55 52 54 55 56 55 48 46 48 50 52 51 50 48 46 45 47 50 52 29 54 51 49 35 52 42 41 44 43 41 41
84 82 77 74 70 71 70 70 71 73 66 65 66 64 60 55 56 59 57 54 54 55 51 54 47 43 44 46 50 53 50 49 49 48 48 49 52 31 55 36 50 48 54 53 50 43 44 44 40
90 85 77 67 66 71 70 68 71 70 64 64 59 56 52 56 58 59 59 59 53 51 53 52 46 47 46 52 50 49 50 50 49 47 49 51 50 55 57 57 59 60 57 52 55 51 48 49 48
Wind_Direction
286 286 312 305 314 321 319 317 323 318 323 335 325 335 327 326 331 334 335 334 339 342 340 342 343 346 341 343 348 336 334 323 299 289 279 261 265 267 271 262 264 270 271 269 271 272 268 245 250
280 288 288 304 310 307 309 313 312 314 330 329 335 328 323 323 331 330 332 334 335 337 337 342 340 342 339 334 341 340 343 338 325 309 299 290 254 258 260 264 264 259 266 267 265 266 266 266 261
282 280 287 302 305 306 310 304 305 307 322 325 318 319 318 323 327 333 329 332 332 335 336 342 338 338 335 341 343 335 331 336 341 339 311 292 267 258 249 264 255 262 259 257 263 261 260 263 263
277 282 286 295 302 300 310 302 311 316 311 321 325 321 319 327 328 333 328 332 333 333 331 337 335 336 339 344 339 344 316 328 334 345 338 317 285 265 264 254 261 258 261 260 266 259 260 258 259
285 282 292 287 292 294 295 296 300 308 317 310 319 320 319 328 327 325 328 330 329 332 330 334 335 333 338 334 341 339 336 308 332 336 339 322 308 292 272 257 253 258 267 266 258 263 260 257 257
270 280 285 288 297 295 292 298 310 310 309 315 313 311 317 322 316 322 325 327 327 331 330 331 334 335 333 340 341 333 317 305 334 336 332 327 324 322 284 264 255 256 257 262 265 264 264 259 257
271 271 286 290 285 296 295 302 304 309 306 317 318 305 319 311 316 323 322 326 326 328 330 328 331 332 334 343 338 335 326 334 330 324 324 319 314 298 300 274 264 258 258 259 262 262 260 261 263
275 279 275 284 276 286 290 298 301 307 294 312 309 308 314 314 320 323 322 322 323 325 319 328 328 326 334 341 333 331 333 323 331 323 323 321 302 299 287 285 285 268 263 261 259 261 262 264 265
270 275 278 283 286 287 282 295 294 299 293 305 299 307 306 313 321 317 316 320 321 325 309 325 330 325 319 334 321 315 323 301 322 327 321 317 314 319 284 282 281 287 274 265 264 266 265 264 264
272 269 278 280 283 287 288 291 287 291 299 303 300 303 308 309 315 312 315 318 322 321 324 320 328 324 333 314 317 319 320 311 311 312 312 308 277 322 312 288 280 276 276 269 266 265 265 267 266
266 268 267 268 280 268 283 285 288 291 298 299 306 307 308 311 310 312 316 320 321 323 316 324 322 324 330 324 312 318 299 321 285 307 299 313 291 307 297 312 292 276 275 274 268 268 267 268 266
262 268 270 274 268 277 283 283 287 288 297 299 299 300 302 307 310 311 316 317 318 316 319 309 322 326 332 326 320 310 287 306 312 315 313 299 313 314 291 281 276 278 280 275 272 272 269 267 268
266 268 268 270 273 279 281 283 286 290 294 297 299 304 304 306 308 312 316 317 316 317 316 317 315 320 330 318 318 281 314 311 307 302 310 286 308 297 297 291 279 288 279 296 275 275 274 275 268
267 270 270 271 274 280 282 284 284 289 293 296 299 302 304 308 309 309 311 314 316 316 316 315 319 312 329 325 322 317 306 318 311 311 301 299 301 303 284 276 292 282 293 290 286 282 275 273 274
266 268 268 272 276 280 283 285 288 292 294 294 297 301 304 306 307 307 307 310 312 314 312 316 321 333 331 329 323 311 317 315 315 298 295 300 312 298 308 306 300 277 278 287 287 281 269 271 272
261 265 269 273 276 279 282 283 285 289 289 293 293 299 302 303 305 304 304 308 315 312 302 317 325 324 334 330 330 330 300 309 313 309 297 298 307 302 298 296 304 297 281 281 285 284 270 265 268
261 263 271 273 274 276 279 280 284 286 289 292 293 294 300 298 303 303 304 305 315 306 313 327 327 337 334 330 296 310 314 317 315 310 325 307 299 292 289 299 307 295 290 283 281 275 277 265 267
257 262 265 269 271 272 276 279 282 285 289 288 291 295 296 296 303 300 301 317 316 312 323 317 325 324 336 312 342 345 336 329 320 308 312 305 307 304 308 301 300 302 290 279 274 267 274 274 268
255 259 263 268 271 272 275 277 279 281 283 285 289 294 293 293 298 297 307 309 317 316 318 326 323 337 342 346 345 348 347 344 332 326 325 316 309 311 315 312 308 302 294 288 279 270 264 265 267
254 257 264 264 265 268 271 274 276 280 281 283 288 289 294 293 296 298 309 313 317 316 313 310 327 336 340 342 344 344 344 284 328 323 332 317 315 308 309 305 304 304 301 293 286 281 279 279 279
255 254 256 260 267 267 269 273 272 275 280 284 287 288 292 293 293 297 306 312 316 312 318 326 328 333 334 335 337 338 338 339 291 340 352 313 312 312 307 304 302 304 302 302 294 288 282 279 277
253 254 255 259 265 265 266 266 269 274 277 282 283 288 291 291 294 297 303 312 315 311 315 318 328 327 329 330 331 333 335 336 298 344 346 321 333 316 310 310 306 306 304 302 299 289 286 281 281
262 261 261 259 261 265 265 264 270 274 276 281 282 286 287 290 293 297 305 313 309 311 316 318 325 323 324 326 325 328 330 336 339 341 345 344 331 337 333 324 317 311 311 306 298 296 289 285 284
259 263 265 266 262 261 263 267 273 273 275 276 280 281 284 291 295 301 310 307 306 311 311 314 322 319 320 323 323 327 329 335 337 338 337 337 344 345 338 336 328 324 315 308 305 304 299 291 286
258 259 261 262 263 261 269 274 271 270 272 276 280 282 289 291 296 301 305 302 303 308 307 320 318 315 318 319 320 323 326 332 335 334 336 331 336 336 338 329 325 325 322 320 317 310 301 295 291
255 257 260 264 262 263 268 269 268 271 274 278 282 285 288 290 292 301 299 298 302 302 306 317 314 312 313 315 316 318 321 326 328 328 332 329 335 329 334 328 331 334 324 322 320 317 311 302 298
254 257 258 260 265 265 264 267 268 271 272 278 282 285 287 289 294 295 293 294 301 298 303 313 310 309 310 312 313 314 317 321 325 327 327 327 326 335 330 326 323 334 319 318 320 318 313 303 298
255 255 261 264 266 267 267 270 272 274 276 280 281 283 286 289 290 287 289 293 296 299 307 308 306 306 306 308 310 311 313 318 320 323 322 321 325 318 326 321 321 306 326 316 316 316 316 311 299
250 251 253 254 257 259 264 267 269 272 276 277 279 282 282 286 284 285 289 293 293 302 301 305 303 304 304 303 305 307 310 313 317 317 317 318 322 326 320 324 320 320 321 321 320 322 324 316 306
255 257 257 259 261 260 264 268 268 270 272 275 278 280 281 278 281 288 292 293 299 299 299 303 301 303 303 304 303 303 308 309 312 313 312 314 320 318 319 322 323 323 323 322 322 324 323 320 313